FIN7MR EFHK-EVRA

Flight info

Callsign FIN7MR
Flight time 0h 47m
Altitude 30000
Route KOIVU Y123 LARTI DCT LUTAL
Aircraft A319/M-SDE3FGHIRWY/LB1

Departure

Time 2026-04-26 12:40
Airport Helsinki Vantaa Airport (EFHK)

Arrival

Time 2026-04-26 13:28
Airport Riga International Airport (EVRA)
Time Latitude Longitude Altitude Speed Heading
2026-04-26 12:18 60.31895 24.96292 167 ft 0 kts 137°
2026-04-26 12:29 60.31895 24.96291 167 ft 0 kts 137°
2026-04-26 12:34 60.31886 24.96307 167 ft 6 kts 137°
2026-04-26 12:34 60.31887 24.96389 167 ft 7 kts 64°
2026-04-26 12:34 60.31922 24.96474 167 ft 10 kts 47°
2026-04-26 12:34 60.31974 24.96585 167 ft 12 kts 46°
2026-04-26 12:35 60.32031 24.96710 167 ft 12 kts 48°
2026-04-26 12:35 60.32095 24.96852 166 ft 15 kts 46°
2026-04-26 12:35 60.32132 24.97005 166 ft 12 kts 123°
2026-04-26 12:35 60.32060 24.97103 166 ft 14 kts 156°
2026-04-26 12:36 60.31970 24.97185 165 ft 15 kts 150°
2026-04-26 12:36 60.31872 24.97294 162 ft 17 kts 154°
2026-04-26 12:36 60.31761 24.97408 160 ft 19 kts 152°
2026-04-26 12:36 60.31641 24.97528 159 ft 20 kts 153°
2026-04-26 12:37 60.31513 24.97664 156 ft 21 kts 154°
2026-04-26 12:37 60.31419 24.97794 155 ft 12 kts 118°
2026-04-26 12:37 60.31414 24.97855 155 ft 1 kts 80°
2026-04-26 12:37 60.31415 24.97856 155 ft 0 kts 79°
2026-04-26 12:38 60.31418 24.97878 155 ft 4 kts 71°
2026-04-26 12:39 60.31451 24.97956 154 ft 10 kts 37°
2026-04-26 12:39 60.31532 24.97982 153 ft 13 kts 347°
2026-04-26 12:39 60.31554 24.97963 153 ft 1 kts 333°
2026-04-26 12:39 60.31561 24.97956 153 ft 2 kts 333°
2026-04-26 12:40 60.31577 24.97939 153 ft 7 kts 332°
2026-04-26 12:40 60.31846 24.97658 152 ft 81 kts 333°
2026-04-26 12:40 60.32519 24.96963 203 ft 133 kts 330°
2026-04-26 12:40 60.33356 24.96151 823 ft 133 kts 333°
2026-04-26 12:41 60.34131 24.95050 1511 ft 142 kts 321°
2026-04-26 12:41 60.34769 24.93433 2151 ft 156 kts 310°
2026-04-26 12:41 60.35235 24.91336 2530 ft 186 kts 295°
2026-04-26 12:41 60.35362 24.88526 2968 ft 220 kts 273°
2026-04-26 12:42 60.34857 24.85324 3466 ft 261 kts 246°
2026-04-26 12:42 60.33739 24.82284 4363 ft 272 kts 242°
2026-04-26 12:42 60.32769 24.79008 5435 ft 270 kts 250°
2026-04-26 12:42 60.31936 24.75629 6477 ft 272 kts 252°
2026-04-26 12:43 60.31114 24.72156 7451 ft 276 kts 251°
2026-04-26 12:43 60.30065 24.68834 8460 ft 288 kts 234°
2026-04-26 12:43 60.28488 24.66246 9460 ft 301 kts 213°
2026-04-26 12:43 60.26482 24.64831 10339 ft 313 kts 194°
2026-04-26 12:44 60.24263 24.63988 10725 ft 337 kts 193°
2026-04-26 12:44 60.21919 24.63124 11362 ft 348 kts 192°
2026-04-26 12:44 60.19503 24.62235 12215 ft 354 kts 192°
2026-04-26 12:44 60.17072 24.61322 13087 ft 358 kts 192°
2026-04-26 12:45 60.14606 24.60382 13907 ft 362 kts 192°
2026-04-26 12:45 60.12123 24.59432 14700 ft 365 kts 193°
2026-04-26 12:45 60.09616 24.58478 15507 ft 367 kts 192°
2026-04-26 12:45 60.07055 24.58010 16321 ft 372 kts 181°
2026-04-26 12:46 60.04470 24.58480 17142 ft 375 kts 170°
2026-04-26 12:46 60.01908 24.59531 17988 ft 376 kts 169°
2026-04-26 12:46 59.99326 24.60586 18684 ft 378 kts 170°
2026-04-26 12:46 59.96730 24.61635 19290 ft 383 kts 170°
2026-04-26 12:47 59.94100 24.62688 19880 ft 387 kts 170°
2026-04-26 12:47 59.91471 24.63736 20489 ft 391 kts 170°
2026-04-26 12:47 59.88784 24.64804 21080 ft 396 kts 170°
2026-04-26 12:47 59.86057 24.65704 21669 ft 399 kts 177°
2026-04-26 12:48 59.83440 24.65676 22217 ft 401 kts 187°
2026-04-26 12:48 59.80696 24.64736 22824 ft 402 kts 197°
2026-04-26 12:48 59.77956 24.63395 23399 ft 406 kts 196°
2026-04-26 12:48 59.75189 24.62081 23858 ft 410 kts 195°
2026-04-26 12:49 59.72393 24.60753 24299 ft 414 kts 196°
2026-04-26 12:49 59.69582 24.59427 24721 ft 419 kts 195°
2026-04-26 12:49 59.66727 24.58155 25136 ft 423 kts 194°
2026-04-26 12:49 59.63844 24.56949 25549 ft 427 kts 194°
2026-04-26 12:50 59.60918 24.55785 25943 ft 432 kts 194°
2026-04-26 12:50 59.57945 24.54631 26309 ft 437 kts 193°
2026-04-26 12:50 59.54954 24.53480 26679 ft 441 kts 194°
2026-04-26 12:50 59.51926 24.52311 27027 ft 446 kts 194°
2026-04-26 12:51 59.48871 24.51127 27388 ft 450 kts 194°
2026-04-26 12:51 59.45783 24.49923 27723 ft 455 kts 194°
2026-04-26 12:51 59.42693 24.48709 28068 ft 459 kts 194°
2026-04-26 12:51 59.39547 24.47471 28405 ft 463 kts 194°
2026-04-26 12:52 59.36372 24.46226 28751 ft 468 kts 194°
2026-04-26 12:52 59.33169 24.44977 29082 ft 472 kts 194°
2026-04-26 12:52 59.29934 24.43722 29398 ft 476 kts 194°
2026-04-26 12:52 59.26666 24.42450 29707 ft 480 kts 194°
2026-04-26 12:53 59.23383 24.41174 29800 ft 477 kts 194°
2026-04-26 12:53 59.20187 24.39942 29812 ft 461 kts 194°
2026-04-26 12:53 59.17072 24.38745 29805 ft 454 kts 195°
2026-04-26 12:54 59.10877 24.36356 29807 ft 452 kts 195°
2026-04-26 12:54 59.04695 24.33983 29808 ft 452 kts 195°
2026-04-26 12:55 58.98523 24.31619 29810 ft 453 kts 195°
2026-04-26 12:55 58.92484 24.29313 29808 ft 453 kts 195°
2026-04-26 12:56 58.86309 24.26969 29802 ft 453 kts 195°
2026-04-26 12:56 58.82200 24.25413 29807 ft 453 kts 195°
2026-04-26 12:57 58.73865 24.22284 29827 ft 464 kts 195°
2026-04-26 12:57 58.67604 24.19941 29836 ft 456 kts 195°
2026-04-26 12:58 58.58281 24.16462 29489 ft 451 kts 195°
2026-04-26 12:58 58.55227 24.15329 29093 ft 446 kts 195°
2026-04-26 12:58 58.52188 24.14200 28586 ft 443 kts 195°
2026-04-26 12:59 58.49222 24.13096 28113 ft 439 kts 195°
2026-04-26 12:59 58.46220 24.11980 27622 ft 437 kts 195°
2026-04-26 12:59 58.43244 24.10876 27154 ft 434 kts 195°
2026-04-26 12:59 58.40291 24.09780 26683 ft 431 kts 195°
2026-04-26 13:00 58.37360 24.08696 26217 ft 429 kts 194°
2026-04-26 13:00 58.34439 24.07622 25749 ft 427 kts 194°
2026-04-26 13:00 58.31513 24.06553 25258 ft 425 kts 194°
2026-04-26 13:00 58.28611 24.05494 24771 ft 424 kts 194°
2026-04-26 13:01 58.25717 24.04437 24262 ft 424 kts 194°
2026-04-26 13:01 58.22827 24.03379 23814 ft 421 kts 194°
2026-04-26 13:01 58.19966 24.02338 23283 ft 421 kts 194°
2026-04-26 13:01 58.17097 24.01299 22953 ft 413 kts 194°
2026-04-26 13:02 58.14282 24.00283 22465 ft 410 kts 194°
2026-04-26 13:02 58.11493 23.99271 22021 ft 406 kts 194°
2026-04-26 13:02 58.08729 23.98262 21593 ft 402 kts 194°
2026-04-26 13:02 58.05997 23.97264 21174 ft 398 kts 194°
2026-04-26 13:03 58.03351 23.96303 20756 ft 394 kts 194°
2026-04-26 13:03 58.00620 23.95314 20313 ft 390 kts 194°
2026-04-26 13:03 57.96180 23.93718 19583 ft 384 kts 194°
2026-04-26 13:04 57.93567 23.92785 19155 ft 381 kts 192°
2026-04-26 13:04 57.90081 23.92541 18443 ft 377 kts 175°
2026-04-26 13:04 57.87550 23.93564 18037 ft 365 kts 162°
2026-04-26 13:04 57.85975 23.94715 17692 ft 359 kts 156°
2026-04-26 13:05 57.83689 23.96559 17063 ft 355 kts 157°
2026-04-26 13:05 57.81428 23.98387 16646 ft 353 kts 157°
2026-04-26 13:05 57.79190 24.00199 16252 ft 350 kts 157°
2026-04-26 13:05 57.77711 24.01395 15996 ft 349 kts 157°
2026-04-26 13:06 57.75754 24.02976 15164 ft 360 kts 157°
2026-04-26 13:06 57.73437 24.04845 14718 ft 359 kts 157°
2026-04-26 13:06 57.71208 24.06638 14591 ft 348 kts 157°
2026-04-26 13:07 57.70028 24.07588 14440 ft 345 kts 157°
2026-04-26 13:07 57.67811 24.09374 14154 ft 341 kts 157°
2026-04-26 13:07 57.65605 24.10951 13799 ft 338 kts 166°
2026-04-26 13:08 57.63342 24.11973 13602 ft 331 kts 167°
2026-04-26 13:08 57.61112 24.12980 13215 ft 329 kts 167°
2026-04-26 13:08 57.58890 24.13991 12802 ft 328 kts 167°
2026-04-26 13:08 57.56677 24.15004 12423 ft 327 kts 167°
2026-04-26 13:09 57.54482 24.16009 11867 ft 324 kts 167°
2026-04-26 13:09 57.52263 24.17014 11218 ft 323 kts 167°
2026-04-26 13:09 57.50064 24.18003 10597 ft 320 kts 167°
2026-04-26 13:09 57.47961 24.18954 10018 ft 319 kts 167°
2026-04-26 13:10 57.45779 24.19946 9344 ft 318 kts 167°
2026-04-26 13:10 57.43629 24.20623 8825 ft 310 kts 180°
2026-04-26 13:10 57.41501 24.20400 8668 ft 306 kts 191°
2026-04-26 13:10 57.39478 24.19924 8576 ft 307 kts 191°
2026-04-26 13:11 57.37361 24.19449 8438 ft 306 kts 190°
2026-04-26 13:11 57.35251 24.18983 8291 ft 305 kts 190°
2026-04-26 13:11 57.33142 24.18518 8147 ft 305 kts 190°
2026-04-26 13:11 57.31037 24.18051 7978 ft 304 kts 191°
2026-04-26 13:12 57.28938 24.17588 7853 ft 304 kts 190°
2026-04-26 13:12 57.26843 24.17128 7706 ft 303 kts 190°
2026-04-26 13:12 57.24748 24.16667 7566 ft 302 kts 190°
2026-04-26 13:12 57.22663 24.16208 7423 ft 302 kts 191°
2026-04-26 13:13 57.21986 24.16058 7375 ft 302 kts 191°
2026-04-26 13:13 57.19862 24.15645 7585 ft 302 kts 189°
2026-04-26 13:13 57.17742 24.15213 7140 ft 307 kts 191°
2026-04-26 13:14 57.15644 24.14741 6866 ft 300 kts 191°
2026-04-26 13:14 57.13581 24.14266 6797 ft 299 kts 191°
2026-04-26 13:14 57.11516 24.13791 6657 ft 299 kts 191°
2026-04-26 13:14 57.09456 24.13323 6503 ft 299 kts 191°
2026-04-26 13:15 57.07379 24.12860 6376 ft 299 kts 191°
2026-04-26 13:15 57.05324 24.12409 6286 ft 299 kts 191°
2026-04-26 13:15 57.03245 24.11959 6163 ft 299 kts 191°
2026-04-26 13:15 57.01885 24.11665 6060 ft 298 kts 191°
2026-04-26 13:16 56.99089 24.11674 5721 ft 303 kts 177°
2026-04-26 13:16 56.97046 24.12044 5371 ft 300 kts 176°
2026-04-26 13:16 56.94938 24.12433 5024 ft 298 kts 177°
2026-04-26 13:16 56.92887 24.12816 4680 ft 295 kts 177°
2026-04-26 13:17 56.88868 24.13559 4017 ft 285 kts 178°
2026-04-26 13:17 56.86917 24.13910 3738 ft 278 kts 178°
2026-04-26 13:18 56.83124 24.14574 3222 ft 266 kts 178°
2026-04-26 13:18 56.81302 24.14770 2963 ft 258 kts 188°
2026-04-26 13:18 56.77938 24.13829 2814 ft 234 kts 195°
2026-04-26 13:19 56.76365 24.13380 2757 ft 225 kts 195°
2026-04-26 13:19 56.74855 24.12951 2701 ft 220 kts 196°
2026-04-26 13:19 56.73367 24.12303 2635 ft 211 kts 214°
2026-04-26 13:19 56.72240 24.10796 2615 ft 191 kts 240°
2026-04-26 13:20 56.71595 24.08908 2555 ft 165 kts 261°
2026-04-26 13:20 56.71365 24.07014 2494 ft 144 kts 278°
2026-04-26 13:20 56.71415 24.05313 2496 ft 128 kts 287°
2026-04-26 13:20 56.71495 24.03727 2497 ft 124 kts 288°
2026-04-26 13:21 56.71573 24.02167 2500 ft 123 kts 288°
2026-04-26 13:21 56.71625 24.01136 2497 ft 123 kts 287°
2026-04-26 13:21 56.71731 23.99059 2506 ft 123 kts 287°
2026-04-26 13:21 56.71809 23.97511 2501 ft 123 kts 287°
2026-04-26 13:22 56.71895 23.96511 2493 ft 118 kts 298°
2026-04-26 13:22 56.72507 23.94857 2516 ft 113 kts 324°
2026-04-26 13:22 56.73163 23.94237 2496 ft 118 kts 345°
2026-04-26 13:22 56.74005 23.94392 2502 ft 119 kts 357°
2026-04-26 13:23 56.74820 23.94379 2515 ft 118 kts 356°
2026-04-26 13:23 56.75626 23.94450 2509 ft 118 kts 356°
2026-04-26 13:23 56.76447 23.94551 2510 ft 117 kts 357°
2026-04-26 13:23 56.77194 23.94653 2504 ft 116 kts 357°
2026-04-26 13:24 56.77994 23.94772 2506 ft 115 kts 358°
2026-04-26 13:24 56.78793 23.94897 2429 ft 115 kts 358°
2026-04-26 13:24 56.79589 23.95024 2308 ft 115 kts 358°
2026-04-26 13:24 56.80391 23.95158 2146 ft 115 kts 358°
2026-04-26 13:25 56.81181 23.95310 1977 ft 114 kts 359°
2026-04-26 13:25 56.81969 23.95481 1832 ft 113 kts 359°
2026-04-26 13:25 56.82754 23.95603 1712 ft 113 kts 356°
2026-04-26 13:25 56.83543 23.95702 1487 ft 113 kts 357°
2026-04-26 13:26 56.84329 23.95805 1386 ft 114 kts 358°
2026-04-26 13:26 56.85119 23.95924 1218 ft 114 kts 358°
2026-04-26 13:26 56.85905 23.96072 1098 ft 115 kts 358°
2026-04-26 13:26 56.86701 23.96199 843 ft 114 kts 359°
2026-04-26 13:27 56.87499 23.96333 712 ft 116 kts 359°
2026-04-26 13:27 56.88309 23.96462 477 ft 116 kts 359°
2026-04-26 13:27 56.89114 23.96582 332 ft 118 kts 358°
2026-04-26 13:27 56.89923 23.96714 176 ft 116 kts 357°
2026-04-26 13:28 56.90725 23.96864 61 ft 113 kts 359°
2026-04-26 13:28 56.91393 23.96939 43 ft 78 kts
2026-04-26 13:28 56.91712 23.97043 43 ft 17 kts 53°
2026-04-26 13:28 56.91720 23.97168 44 ft 6 kts 94°
2026-04-26 13:29 56.91717 23.97251 44 ft 7 kts 98°
2026-04-26 13:29 56.91713 23.97317 44 ft 8 kts 89°
2026-04-26 13:29 56.91748 23.97413 44 ft 7 kts 359°
2026-04-26 13:29 56.91795 23.97414 44 ft 9 kts
2026-04-26 13:30 56.91889 23.97431 44 ft 17 kts
2026-04-26 13:30 56.92003 23.97442 44 ft 15 kts
2026-04-26 13:30 56.92109 23.97458 44 ft 18 kts
2026-04-26 13:30 56.92196 23.97472 44 ft 18 kts
2026-04-26 13:31 56.92354 23.97500 44 ft 15 kts
2026-04-26 13:31 56.92396 23.97600 44 ft 2 kts 81°
2026-04-26 13:31 56.92402 23.97615 44 ft 2 kts 67°
2026-04-26 13:31 56.92419 23.97683 42 ft 9 kts 49°
2026-04-26 13:32 56.92434 23.97702 44 ft 0 kts 28°